When you browse on this site, cookies collect data to enhance your experience and personalize the content and advertising you see.
Visit our Privacy Policy to learn more. By continuing to use the site, you agree to this use of cookies and data.
  • In Slovakia
  • List of Countries
  • For 7 days
  • Water Temperature
  • Weather Map
  • Weather Widgets
  • user-avatar
    Login

    Hourly Weather Ashtarak

    Today, 20 January, Monday

    Time Temperature Precipitation Wind Pressure Humidity
    00:00 -3°C° 0 mm 1 mps 659 mmHg 81%
    01:00 -5°C° 0 mm 0 mps 659 mmHg 82%
    02:00 -5°C° 0 mm 0 mps 659 mmHg 84%
    03:00 -5°C° 0 mm 0 mps 659 mmHg 86%
    04:00 -6°C° 0 mm 0 mps 659 mmHg 86%
    05:00 -6°C° 0 mm 0 mps 659 mmHg 86%
    06:00 -6°C° 0 mm 0 mps 659 mmHg 87%
    07:00 -5°C° 0 mm 0 mps 660 mmHg 84%
    08:00 -5°C° 0 mm 0 mps 660 mmHg 82%
    09:00 -4°C° 0 mm 0 mps 660 mmHg 79%
    10:00 -3°C° 0 mm 0 mps 660 mmHg 78%
    11:00 -2°C° 0 mm 0 mps 660 mmHg 77%
    12:00 -1°C° 0 mm 0 mps 660 mmHg 76%
    13:00 -1°C° 0 mm 0 mps 660 mmHg 75%
    14:00 -1°C° 0 mm 0 mps 660 mmHg 74%
    15:00 0°C° 0 mm 0 mps 659 mmHg 74%
    16:00 -2°C° 0 mm 0 mps 659 mmHg 75%
    17:00 -3°C° 0 mm 0 mps 659 mmHg 77%
    18:00 -3°C° 0 mm 1 mps 659 mmHg 78%
    19:00 -4°C° 0 mm 1 mps 659 mmHg 77%
    20:00 -4°C° 0 mm 1 mps 659 mmHg 76%
    21:00 -4°C° 0 mm 1 mps 659 mmHg 75%
    22:00 -6°C° 0 mm 1 mps 659 mmHg 74%
    23:00 -6°C° 0 mm 1 mps 659 mmHg 73%

    Tomorrow, 21 January, Tuesday

    Time Temperature Precipitation Wind Pressure Humidity
    00:00 -6°C° 0 mm 1 mps 659 mmHg 72%
    01:00 -6°C° 0 mm 1 mps 659 mmHg 71%
    02:00 -7°C° 0 mm 1 mps 659 mmHg 70%
    03:00 -7°C° 0 mm 1 mps 659 mmHg 69%
    04:00 -7°C° 0 mm 1 mps 659 mmHg 67%
    05:00 -7°C° 0 mm 1 mps 659 mmHg 65%
    06:00 -7°C° 0 mm 1 mps 658 mmHg 63%
    07:00 -7°C° 0 mm 1 mps 659 mmHg 61%
    08:00 -6°C° 0 mm 1 mps 659 mmHg 58%
    09:00 -4°C° 0 mm 1 mps 660 mmHg 55%
    10:00 -3°C° 0 mm 1 mps 660 mmHg 56%
    11:00 -1°C° 0 mm 1 mps 659 mmHg 57%
    12:00 0°C° 0 mm 1 mps 659 mmHg 58%
    13:00 0°C° 0 mm 1 mps 659 mmHg 59%
    14:00 0°C° 0 mm 1 mps 659 mmHg 61%
    15:00 -1°C° 0 mm 0 mps 659 mmHg 62%
    16:00 -1°C° 0 mm 1 mps 659 mmHg 62%
    17:00 -2°C° 0 mm 1 mps 659 mmHg 62%
    18:00 -6°C° 0 mm 2 mps 659 mmHg 62%
    19:00 -4°C° 0 mm 1 mps 659 mmHg 60%
    20:00 -4°C° 0 mm 1 mps 659 mmHg 58%
    21:00 -6°C° 0 mm 1 mps 660 mmHg 56%
    22:00 -6°C° 0 mm 1 mps 660 mmHg 56%
    23:00 -6°C° 0 mm 1 mps 660 mmHg 57%

    Day after tomorrow, 22 January, Wednesday

    Time Temperature Precipitation Wind Pressure Humidity
    00:00 -7°C° 0 mm 1 mps 660 mmHg 57%
    01:00 -7°C° 0 mm 1 mps 660 mmHg 57%
    02:00 -7°C° 0 mm 1 mps 660 mmHg 57%
    03:00 -7°C° 0 mm 1 mps 660 mmHg 57%
    04:00 -8°C° 0 mm 1 mps 659 mmHg 58%
    05:00 -8°C° 0 mm 1 mps 659 mmHg 59%
    06:00 -8°C° 0 mm 1 mps 659 mmHg 59%
    07:00 -7°C° 0 mm 1 mps 659 mmHg 58%
    08:00 -7°C° 0 mm 1 mps 660 mmHg 57%
    09:00 -6°C° 0 mm 1 mps 660 mmHg 56%
    10:00 -4°C° 0 mm 1 mps 660 mmHg 57%
    11:00 -2°C° 0 mm 1 mps 660 mmHg 57%
    12:00 -1°C° 0 mm 1 mps 659 mmHg 57%
    13:00 -1°C° 0 mm 1 mps 659 mmHg 58%
    14:00 -1°C° 0 mm 1 mps 658 mmHg 59%
    15:00 -2°C° 0 mm 0 mps 658 mmHg 60%
    16:00 -2°C° 0 mm 1 mps 658 mmHg 61%
    17:00 -3°C° 0 mm 1 mps 658 mmHg 61%
    18:00 -6°C° 0 mm 1 mps 657 mmHg 61%
    19:00 -6°C° 0 mm 1 mps 657 mmHg 60%
    20:00 -6°C° 0 mm 1 mps 657 mmHg 59%
    21:00 -7°C° 0 mm 1 mps 657 mmHg 59%
    22:00 -7°C° 0 mm 1 mps 657 mmHg 60%
    23:00 -7°C° 0 mm 1 mps 656 mmHg 61%

    23 January, Thursday

    Time Temperature Precipitation Wind Pressure Humidity
    00:00 -8°C° 0 mm 1 mps 656 mmHg 62%
    01:00 -8°C° 0 mm 1 mps 655 mmHg 63%
    02:00 -8°C° 0 mm 1 mps 655 mmHg 64%
    03:00 -8°C° 0 mm 1 mps 654 mmHg 66%
    04:00 -8°C° 0 mm 1 mps 654 mmHg 66%
    05:00 -8°C° 0 mm 1 mps 653 mmHg 66%
    06:00 -8°C° 0 mm 1 mps 653 mmHg 67%
    07:00 -8°C° 0 mm 1 mps 653 mmHg 66%
    08:00 -7°C° 0 mm 1 mps 653 mmHg 65%
    09:00 -6°C° 0 mm 1 mps 653 mmHg 64%
    10:00 -4°C° 0 mm 1 mps 653 mmHg 63%
    11:00 -3°C° 0 mm 1 mps 652 mmHg 62%
    12:00 -2°C° 0 mm 1 mps 652 mmHg 61%
    13:00 -2°C° 0 mm 1 mps 651 mmHg 61%
    14:00 -2°C° 0 mm 1 mps 651 mmHg 61%
    15:00 -2°C° 0 mm 1 mps 650 mmHg 61%
    16:00 -2°C° 0 mm 1 mps 651 mmHg 63%
    17:00 -3°C° 0 mm 1 mps 651 mmHg 65%
    18:00 -3°C° 0 mm 1 mps 651 mmHg 66%
    19:00 -4°C° 0.1 mm 1 mps 651 mmHg 69%
    20:00 -4°C° 0.1 mm 1 mps 652 mmHg 71%
    21:00 -4°C° 0.1 mm 1 mps 652 mmHg 73%
    22:00 -4°C° 0.1 mm 1 mps 652 mmHg 78%
    23:00 -4°C° 0.1 mm 1 mps 652 mmHg 82%

    24 January, Friday

    Time Temperature Precipitation Wind Pressure Humidity
    00:00 -6°C° 0.1 mm 0 mps 652 mmHg 87%
    01:00 -6°C° 0.1 mm 0 mps 652 mmHg 88%
    02:00 -6°C° 0.1 mm 1 mps 652 mmHg 88%
    03:00 -6°C° 0.1 mm 1 mps 652 mmHg 89%
    04:00 -6°C° 0 mm 1 mps 652 mmHg 88%
    05:00 -7°C° 0 mm 1 mps 652 mmHg 88%
    06:00 -7°C° 0 mm 1 mps 653 mmHg 87%
    07:00 -6°C° 0 mm 1 mps 653 mmHg 83%
    08:00 -6°C° 0 mm 1 mps 654 mmHg 80%
    09:00 -6°C° 0 mm 1 mps 655 mmHg 76%
    10:00 -4°C° 0 mm 1 mps 655 mmHg 69%
    11:00 -3°C° 0 mm 1 mps 655 mmHg 63%
    12:00 -3°C° 0 mm 2 mps 656 mmHg 56%
    13:00 -3°C° 0 mm 2 mps 656 mmHg 56%
    14:00 -3°C° 0 mm 2 mps 656 mmHg 56%
    15:00 -3°C° 0 mm 2 mps 656 mmHg 56%
    16:00 -5°C° 0 mm 2 mps 656 mmHg 57%
    17:00 -7°C° 0 mm 3 mps 657 mmHg 57%
    18:00 -9°C° 0 mm 3 mps 657 mmHg 58%
    19:00 -9°C° 0 mm 3 mps 658 mmHg 57%
    20:00 -10°C° 0 mm 3 mps 658 mmHg 55%
    21:00 -10°C° 0 mm 3 mps 659 mmHg 54%
    22:00 -10°C° 0 mm 2 mps 659 mmHg 53%
    23:00 -10°C° 0 mm 2 mps 660 mmHg 53%

    25 January, Saturday

    Time Temperature Precipitation Wind Pressure Humidity
    00:00 -10°C° 0 mm 2 mps 660 mmHg 52%
    01:00 -12°C° 0 mm 2 mps 660 mmHg 51%
    02:00 -12°C° 0 mm 2 mps 660 mmHg 49%
    03:00 -12°C° 0 mm 2 mps 660 mmHg 48%
    04:00 -12°C° 0 mm 2 mps 660 mmHg 47%
    05:00 -11°C° 0 mm 1 mps 661 mmHg 46%
    06:00 -11°C° 0 mm 1 mps 661 mmHg 46%
    07:00 -10°C° 0 mm 1 mps 661 mmHg 46%
    08:00 -9°C° 0 mm 1 mps 662 mmHg 46%
    09:00 -8°C° 0 mm 1 mps 662 mmHg 47%
    10:00 -7°C° 0 mm 1 mps 662 mmHg 47%
    11:00 -6°C° 0 mm 1 mps 662 mmHg 47%
    12:00 -4°C° 0 mm 1 mps 662 mmHg 48%
    13:00 -3°C° 0 mm 1 mps 662 mmHg 50%
    14:00 -3°C° 0 mm 1 mps 661 mmHg 52%
    15:00 -3°C° 0 mm 1 mps 661 mmHg 53%
    16:00 -4°C° 0 mm 1 mps 661 mmHg 54%
    17:00 -6°C° 0 mm 1 mps 661 mmHg 55%
    18:00 -7°C° 0 mm 1 mps 661 mmHg 55%
    19:00 -8°C° 0 mm 1 mps 661 mmHg 55%
    20:00 -8°C° 0 mm 1 mps 661 mmHg 55%
    21:00 -8°C° 0 mm 1 mps 661 mmHg 54%
    22:00 -8°C° 0 mm 1 mps 661 mmHg 55%
    23:00 -8°C° 0 mm 1 mps 661 mmHg 56%
    Show more